Location: Cheyres
(46.8153°N, 6.7877°E)
Time: 04:11:24
(UTC+00:00)

Terra - Pass Details

Date: 11 May 2021
Orbit: 701 x 703 km, 98.2° (Epoch: 18 June)

Event Time Altitude Azimuth Distance (km) Brightness Sun altitude
Exits shadow 21:32:47 40° 179° (S) 1,031 2.2 -20.0°
Maximum altitude 21:34:29 76° 257° (WSW) 729 1.8 -20.1°
Drops below altitude 10° 21:39:16 10° 343° (NNW) 2,182 5.5 -20.5°
Sets 21:41:32 0° 346° (NNW) 3,105 6.6 -20.7°
